Regional Weather Roundup
Issued by NWS

Home | Current Version | Previous Version | Graphics & Text | Print | Product List | Glossary On
Versions: 1 2 3 4 5 6 7 8 9 10 11 12 13 14 15 16 17 18 19 20 21 22 23 24 25 26 27 28 29 30 31 32 33 34 35 36 37 38 39 40 41 42 43 44 45 46 47 48 49 50
656
ASUS45 KABQ 251510
RWRNM
NEW MEXICO REGIONAL WEATHER ROUNDUP
NATIONAL WEATHER SERVICE ALBUQUERQUE NM
800 AM MST SUN FEB 25 2018

NOTE: "FAIR" MEANS FEW OR NO CLOUDS BELOW 12,000 FEET AGL WITH NO
       SIGNIFICANT WEATHER OR OBSTRUCTIONS TO VISION.

      THIS PRODUCT IS RELEASED AS TWO VERSIONS.  ONE VERSION NEAR
      THE TOP OF THE HOUR CONTAINING PRELIMINARY DATA FROM ALBUQUERQUE
      AND OTHER STATIONS.  A FINAL VERSION WITH ADDITIONAL DATA IS
      ISSUED ABOUT 10 MINUTES AFTER THE HOUR.

NMZ501-503-504-510>518-251600-
NORTHWEST PLATEAU/NORTHCENTRAL MOUNTAINS

CITY           SKY/WX    TMP DP  RH WIND       PRES   REMARKS
FARMINGTON     FAIR      26  20  77 W12       30.07R WCI  16
LOS ALAMOS     FAIR      23  13  66 W5        29.99R WCI  17
SANTA FE       PTSUNNY   24  12  60 SW8       30.00R WCI  15
TAOS           PTSUNNY   23  15  71 W12       29.99R WCI  12
ANGEL FIRE     SNOW      17  13  86 SW6       29.91R VSB 1/2 WCI   8

$$
NMZ402-403-502-505>509-251600-
WESTCENTRAL MOUNTAINS/SOUTHWEST MOUNTAINS

CITY           SKY/WX    TMP DP  RH WIND       PRES   REMARKS
GALLUP         FAIR      25  15  66 W14       30.10R WCI  13
GRANTS         FAIR      25  13  58 NW12      30.08R WCI  15
SILVER CITY    FAIR      34  11  38 NW13      30.10R WCI  25

$$
NMZ407-409-411-412-251600-
SOUTHERN DESERTS

CITY           SKY/WX    TMP DP  RH WIND       PRES   REMARKS
DEMING         FAIR      34  16  47 SW8       30.11R WCI  27
LAS CRUCES     FAIR      40  11  31 SW5       30.11R
HOLLOMAN AFB   FAIR      41  10  27 SE12      30.10R
ALAMOGORDO     FAIR      41   9  26 S12       30.09R
T OR C         FAIR      36  16  44 SE5       30.07R WCI  32

$$
NMZ519>523-251600-
CENTRAL VALLEYS/CENTRAL HIGHLANDS

CITY           SKY/WX    TMP DP  RH WIND       PRES   REMARKS
ALBUQUERQUE    PTSUNNY   31  11  43 SW12      30.08R WCI  22
DOUBLE EAGLE   MOSUNNY   27  10  50 MISG      30.06R
MORIARTY ARPT  FAIR      32  12  43 W18G30    30.04R WCI  21
CLINES CORNERS FAIR      26   9  48 W30G37    29.98R WCI  10
BELEN          FAIR      30   8  38 CALM      30.11R
SOCORRO        FAIR      38   1  21 NW17G23   30.11R WCI  28

$$
NMZ524>526-539-540-251600-
SOUTHCENTRAL MOUNTAINS

CITY           SKY/WX    TMP DP  RH WIND       PRES   REMARKS
RUIDOSO        FAIR      37  -8  14 W17G24    30.01R WCI  28

$$
NMZ527>531-251600-
NORTHEAST HIGHLANDS/NORTHEAST PLAINS

CITY           SKY/WX    TMP DP  RH WIND       PRES   REMARKS
LAS VEGAS      FAIR      28   8  43 W16       29.92R WCI  16
RATON          FAIR      25   4  40 CALM      29.91R
CLAYTON        FAIR      34   6  31 W6        29.92R WCI  29

$$
NMZ532>537-251600-
EASTCENTRAL PLAINS

CITY           SKY/WX    TMP DP  RH WIND       PRES   REMARKS
SANTA ROSA     FAIR      29   6  36 SW5       29.98R WCI  24
TUCUMCARI      FAIR      37   5  26 W8        29.95R WCI  31
CANNON AFB     FAIR      35   9  33 W5        30.00R WCI  31
CLOVIS AIRPORT FAIR      33   9  36 W5        30.00R WCI  29

$$
NMZ028-029-538-251600-
SOUTHEAST PLAINS

CITY           SKY/WX    TMP DP  RH WIND       PRES   REMARKS
ROSWELL        FAIR      30  12  47 N6        30.00R WCI  24
ARTESIA        FAIR      43   7  22 S10       30.02R
CARLSBAD       FAIR      34   8  33 CALM      30.02R
HOBBS          SUNNY     39   1  20 S12       30.02R WCI  32


$$




USA.gov is the U.S. government's official web portal to all federal, state and local government web resources and services.